Welcome to the New NWS' Forecast!
Most changes are behind the scenes, but click here for differences you might notice.

Regional Weather Roundup (RWR)

Issued by Gray - Portland, ME (GYX)

                            
713 
ASUS41 KGYX 191905
RWRGYX
WEATHER ROUNDUP FOR MAINE AND NEW HAMPSHIRE
NATIONAL WEATHER SERVICE GRAY ME
300 PM EDT SUN AUG 19 2018

MEZ002-005-006-010-012-015-018-020-021-024-026-027-029-192000-
MAINE
  
CITY           SKY/WX    TMP DP  RH WIND       PRES   REMARKS
PORTLAND       FAIR      73  60  63 E13       30.07S                  
SANFORD        FAIR      73  61  65 VRB7      30.07R                  
BAR HARBOR     PTSUNNY   74  57  55 NE10      30.07F                  
WISCASSET      FAIR      78  53  41 VRB7      30.07S                  
ROCKLAND       FAIR      74  60  61 NE8       30.06F                  
FRYEBURG       FAIR      78  56  46 NE8       30.08S                  
LEWISTONAUBURN   N/A     76  57  51 NE9       30.07F                  
AUGUSTA        FAIR      76  53  44 N16       30.08S                  
WATERVILLE     FAIR      75  56  51 NE10G17   30.06S                  
BANGOR         PTSUNNY   78  54  43 N10G23    30.08F                  
GREENVILLE     NOT AVBL                                               
MILLINOCKET    FAIR      76  51  41 E12       30.12S                  
HOULTON        PTSUNNY   72  54  53 E7        30.10S                  
PRESQUE ISLE   NOT AVBL                                               
FRENCHVILLE    FAIR      74  51  44 CALM      30.14S                  
CARIBOU        PTSUNNY   73  52  47 VRB5      30.12S                  
$$

NHZ002-005-008-009-011-012-014-192000-
NEW HAMPSHIRE
  
CITY           SKY/WX    TMP DP  RH WIND       PRES   REMARKS
PORTSMOUTH     PTSUNNY   71  59  66 E9G17     30.06R                  
ROCHESTER      FAIR      74  61  63 E10       30.06R                  
NASHUA         FAIR      77  58  51 SE10      30.07R                  
MANCHESTER     PTSUNNY   77  53  43 E8        30.04S                  
CONCORD        FAIR      78  56  46 NE7       30.06R                  
LACONIA        PTSUNNY   74  57  55 E8        30.07R                  
PLYMOUTH       FAIR      78  54  42 E5        30.05F                  
BERLIN         FAIR      78  51  38 VRB6      30.09S                  
WHITEFIELD     FAIR      77  53  43 VRB6      30.08S                  
JAFFREY        FAIR      75  56  51 VRB3      30.09R                  
KEENE          FAIR     N/A N/A N/A CALM      30.06R                  
LEBANON        FAIR      79  53  40 E5        30.05S                  
MT WASHINGTON  MOSUNNY   50  45  81 E6          N/A                   
$$

VTZ005-007-008-192000-
VERMONT
  
CITY           SKY/WX    TMP DP  RH WIND       PRES   REMARKS
ST JOHNSBURY     N/A     78  53  41 MISG      30.04F                  
MONTPELIER     FAIR      76  55  48 VRB3      30.10F                  
BURLINGTON     FAIR      81  58  45 N10       30.03F                  
$$

MAZ007-012-024-CTZ003-RIZ002-NYZ038-NYZ072-192000-
SOUTHERN NEW ENGLAND AND NY
  
CITY           SKY/WX    TMP DP  RH WIND       PRES   REMARKS
BOSTON         CLOUDY    71  61  70 NE16      30.06R                  
WORCESTER      FAIR      71  54  54 E15G23    30.06S                  
NANTUCKET      CLOUDY    70  64  81 N22       29.98R                  
PROVIDENCE     FAIR      75  59  57 NE18G29   30.02S                  
HARTFORD       PTSUNNY   79  56  45 NE14      30.01F                  
ALBANY         PTSUNNY   79  56  45 E7        30.03S                  
NEW YORK CITY  CLOUDY    73  62  68 NE9G18    29.99S                  
$$

ANZ081-ANZ082-ANZ150-NHZ014-MEZ023>029-192000-
COASTAL MARINE OBSERVATIONS
  
STATION/POSITION TIME  TEMP    WIND        PRES    WAVE
                       AIR SEA DIR/SP/G            HT/PER
                 (UTC) (F)     (DEG/KT/KT) (MB)    (FT/S)
MOUNT DESERT ROC 1900   60      30/ 16/ 17 1017.9S
MATINICUS ROCK   1800   66      30/ 13/ 14 1017.7F
ISLE OF SHOALS   1800   65      60/ 19/ 20 1017.3F
JEFFREYS LEDGE   1836      67                N/A     5/ 6
$$

.............KEY..............
   WCI - WIND CHILL
   TC  - TEMPERATURE IN CELSIUS
   VSB - VISIBILITY IN MILES
   HX  - HEAT INDEX
   FAIR- INDICATES FEW OR NO CLOUDS BELOW 12,000 FT, WITH NO 
         SIGNIFICANT WEATHER AND/OR OBSTRUCTIONS TO VISIBILITY.